Regional Weather Roundup
Issued by NWS

Home | Current Version | Previous Version | Graphics & Text | Print | Product List | Glossary On
Versions: 1 2 3 4 5 6 7 8 9 10 11 12 13 14 15 16 17 18 19 20 21 22 23 24 25 26 27 28 29 30 31 32 33 34 35 36 37 38 39 40 41 42 43 44 45 46 47 48 49 50
000
ASUS43 KTOP 202108
RWRKS

WEATHER ROUNDUP FOR KANSAS
NATIONAL WEATHER SERVICE GOODLAND KS
300 PM CST FRI JAN 20 2017

NOTE:  "FAIR" INDICATES FEW OR NO CLOUDS BELOW 12,000 FEET WITH NO
SIGNIFICANT WEATHER AND/OR OBSTRUCTIONS TO VISIBILITY.

KSZ001>006-013>018-027>032-041>047-202200-
NORTHWEST KANSAS

CITY           SKY/WX    TMP DP  RH WIND       PRES   REMARKS
GOODLAND       MIX PCPN  36  33  89 NW8       29.37F
HAYS           CLOUDY    47  38  71 W9        29.38F
HILL CITY      CLOUDY    43  38  82 W5        29.38F
RUSSELL        CLOUDY    47  41  80 SW7       29.37F
$$

KSZ061>065-074>080-084>089-202200-
SOUTHWEST KANSAS

CITY           SKY/WX    TMP DP  RH WIND       PRES   REMARKS
DODGE CITY     PTSUNNY   51  39  63 S12G21    29.37S
ELKHART          N/A     51  27  39 NW24        N/A
GARDEN CITY    CLOUDY    46  37  71 NW15      29.37S
GREAT BEND     PTSUNNY   47  43  86 CALM      29.37F
LIBERAL        MOSUNNY   55  36  47 NW24      29.37R
PRATT          CLOUDY    44  40  86 SW8       29.40R
$$

KSZ066>073-081>083-090>101-202200-
SOUTHEAST KANSAS

CITY           SKY/WX    TMP DP  RH WIND       PRES   REMARKS
CHANUTE        MOSUNNY   57  45  64 SW7       29.42F
COFFEYVILLE    SUNNY     64  40  41 SW20G28   29.43S
HUTCHINSON     CLOUDY    50  44  80 SW7       29.40S
MEDICINE LODGE   N/A     46  42  86 S9        29.41S
NEWTON         CLOUDY    50  44  80 SW8       29.41
PARSONS        SUNNY     62  42  47 S15G22    29.43F
WICHITA INTL   CLOUDY    51  44  77 S9        29.41R
WICHITA JABRA  CLOUDY    50  44  80 S10       29.41R
WICHITA MCCONL CLOUDY    51  43  73 SW8       29.41R
WINFIELD       PTSUNNY   51  43  74 SW17      29.45R
$$

KSZ007>012-019>026-033>040-048>060-102>105-202200-
NORTHEAST KANSAS

CITY           SKY/WX    TMP DP  RH WIND       PRES   REMARKS
CONCORDIA      CLOUDY    45  45 100 S5        29.40S FOG
EMPORIA        CLOUDY    51  47  86 S8        29.41R
LAWRENCE       CLOUDY    53  49  86 SE7       29.44R
MANHATTAN      CLOUDY    50  47  89 S6        29.41F
MARYSVILLE     CLOUDY    46  46 100 SE6       29.42S FOG
OLATHE IND     CLOUDY    51  48  89 S9        29.44R
OLATHE EXE     CLOUDY    51  48  89 S5        29.44S
SALINA         CLOUDY    48  46  93 CALM      29.41S FOG
TOPEKA BILLARD CLOUDY    51  48  89 NE3       29.42F FOG
TOPEKA FORBES  CLOUDY    53  48  83 SE3       29.42S
$$



USA.gov is the U.S. government's official web portal to all federal, state and local government web resources and services.